[[{"header":{"parameterUnit":"m.s-1","parameterCategory":1,"la1":30.2991,"la2":30.254,"lo1":-89.0895,"lo2":-89.0444,"dy":0.0017,"dx":0.0017,"nx":28,"ny":28,"refTime":"2025-01-02T03:00:00:Z","depth":0,"parameterNumber":2,"parameterNumberName":"U-component_of_WINDS"},"data":[0,0,0,0,0,0,0,0,0,0,0,0,0,0,0,0,0,0,0,0,0,0,0,0,0,0,0,0,0,0,0,0,0,0,0,0,0,0,0,0,0,0,0,0,0,0,0,0,0,0,0,0,0,0,0,0,0,0,-1.4444,-1.4444,0,-1.4435,-1.4435,-1.4434,-1.4349,-1.4346,-1.4344,-1.4342,-1.4335,-1.4336,-1.4338,0,0,0,0,0,0,0,0,0,0,0,0,0,-1.4389,-1.4391,-1.4444,-1.4444,-1.4444,-1.4435,-1.4435,-1.4434,-1.4349,-1.4346,-1.4344,-1.4341,-1.4334,-1.4336,-1.4338,0,0,0,0,0,0,0,0,0,0,0,0,0,-1.44,-1.4391,-1.4444,-1.44,-1.4396,-1.4435,-1.4435,-1.4434,-1.4349,-1.4346,-1.4343,-1.434,-1.4333,-1.4336,-1.4339,-1.442,0,0,-1.4347,-1.4348,0,0,0,0,0,0,0,0,-1.4399,-1.4402,-1.4407,-1.4403,-1.4399,-1.4389,-1.4412,-1.443,-1.435,-1.4367,-1.4342,-1.4338,-1.4356,-1.4356,-1.4362,-1.4419,-1.4419,-1.4347,-1.4349,-1.435,-1.4351,0,0,0,0,0,0,0,-1.4399,-1.4402,-1.444,-1.4407,-1.4402,-1.4381,-1.4379,-1.4415,-1.438,-1.4365,-1.4359,-1.4359,-1.4353,-1.4359,-1.4361,-1.4419,-1.4347,-1.4349,-1.4351,-1.4352,-1.4543,-1.4546,0,0,0,0,0,0,-1.4404,-1.4402,-1.4441,-1.444,-1.4391,-1.4385,-1.4382,-1.4396,-1.4379,-1.4373,-1.4362,-1.4355,-1.4356,-1.4358,-1.436,-1.4455,-1.435,-1.4352,-1.4354,-1.4539,-1.4543,-1.4547,0,0,0,0,0,0,-1.4403,-1.4408,-1.4441,-1.4419,-1.4422,-1.4389,-1.4405,-1.4397,-1.4404,-1.4376,-1.437,-1.4375,-1.4354,-1.4356,-1.4405,-1.4453,-1.4354,-1.4356,-1.4535,-1.454,-1.4545,-1.4644,0,0,0,0,0,0,-1.4402,-1.4408,-1.4439,-1.4421,-1.4423,-1.4486,-1.4408,-1.4399,-1.4408,-1.4399,-1.4387,-1.4382,-1.4351,-1.4402,-1.4408,-1.4455,-1.4358,-1.4531,-1.4538,-1.4544,-1.4637,-1.4652,-1.4665,0,0,0,0,0,-1.44,-1.4467,-1.4441,-1.4446,-1.446,-1.4489,-1.4491,-1.4454,-1.4412,-1.4443,-1.4425,-1.4382,-1.4446,-1.4408,-1.4414,-1.4463,-1.4528,-1.4536,-1.4543,-1.463,-1.4649,-1.4665,0,0,0,0,0,0,-1.4493,-1.4464,-1.4434,-1.4497,-1.4496,-1.4475,-1.4512,-1.4475,-1.4487,-1.4478,-1.4433,-1.4431,-1.4487,-1.4479,-1.4436,-1.454,-1.448,-1.4489,-1.4544,-1.4561,-1.4575,-1.4577,-1.436,0,0,0,0,0,-1.452,-1.4545,-1.4519,-1.4577,-1.4578,-1.4546,-1.4557,-1.4528,-1.4526,-1.4525,-1.4511,-1.4511,-1.4531,-1.4545,-1.4562,-1.4634,-1.4631,-1.4671,-1.4685,-1.4697,-1.4706,-1.4745,-1.4762,-1.4573,-1.4573,-1.4572,0,0,-1.4578,-1.4565,-1.4584,-1.4596,-1.4592,-1.462,-1.4546,-1.4578,-1.4599,-1.453,-1.4576,-1.4566,-1.4562,-1.4623,-1.4649,-1.4619,-1.4758,-1.4707,-1.4717,-1.4719,-1.4755,-1.4773,-1.4789,-1.4578,-1.4577,-1.4576,0,0,-1.4697,-1.469,-1.4738,-1.4735,-1.4729,-1.4707,-1.4719,-1.4702,-1.4693,-1.4737,-1.4687,-1.471,-1.4746,-1.4746,-1.475,-1.4869,-1.483,-1.4875,-1.4952,-1.499,-1.5005,-1.5018,-1.5062,-1.5078,-1.4884,-1.4885,-1.4885,0,-1.477,-1.481,-1.4767,-1.4803,-1.481,-1.4748,-1.4797,-1.4796,-1.4797,-1.4804,-1.4768,-1.4812,-1.4805,-1.4865,-1.4894,-1.49,-1.4912,-1.4878,-1.5006,-1.5018,-1.503,-1.5071,-1.5088,-1.489,-1.489,-1.4889,-1.4888,0,-1.49,-1.4928,-1.4968,-1.4969,-1.498,-1.5023,-1.4987,-1.5003,-1.4974,-1.4955,-1.5002,-1.4991,-1.5005,-1.5017,-1.4989,-1.5074,-1.5055,-1.5014,-1.4952,-1.5055,-1.5093,-1.5108,-1.4898,-1.4896,-1.4895,-1.4893,0,0,-1.508,-1.5056,-1.5072,-1.5072,-1.5061,-1.5082,-1.5121,-1.5134,-1.515,-1.5152,-1.5185,-1.5216,-1.5177,-1.5182,-1.5153,-1.5186,-1.5282,-1.514,-1.514,-1.5169,-1.5377,-1.541,-1.5429,-1.5256,-1.5258,-1.5261,-1.5378,0,-1.5196,-1.5262,-1.5225,-1.5296,-1.5322,-1.5263,-1.5297,-1.5295,-1.5278,-1.5298,-1.5279,-1.5303,-1.5249,-1.5252,-1.5282,-1.5265,-1.5324,-1.5255,-1.5287,-1.5289,-1.5292,-1.5449,-1.5484,-1.5596,-1.5393,-1.5395,-1.5397,0,-1.5341,-1.5349,-1.5424,-1.5407,-1.5417,-1.5449,-1.5458,-1.5477,-1.5472,-1.5458,-1.5464,-1.5426,-1.5464,-1.5402,-1.5454,-1.5408,-1.5419,-1.5412,-1.5416,-1.5419,-1.5351,-1.5459,-1.563,-1.5648,-1.542,-1.5418,-1.5416,0,-1.5467,-1.5496,-1.5544,-1.5546,-1.5528,-1.5552,-1.5545,-1.5538,-1.5548,-1.5556,-1.5562,-1.5574,-1.5582,-1.5592,-1.5559,-1.5517,-1.5617,-1.5551,-1.5607,-1.5608,-1.5633,-1.5632,-1.5811,-1.5636,-1.5636,-1.5636,-1.5635,0,-1.5603,-1.5651,-1.5601,-1.5631,-1.5683,-1.5639,-1.5692,-1.568,-1.5673,-1.57,-1.5649,-1.5675,-1.5629,-1.5651,-1.5625,-1.5674,-1.5677,-1.5667,-1.566,-1.5673,-1.5675,-1.5681,-1.5673,-1.564,-1.5639,-1.5638,-1.5637,0,-1.5753,-1.5721,-1.5771,-1.5749,-1.5744,-1.5784,-1.5766,-1.5793,-1.5772,-1.5807,-1.5812,-1.578,-1.5803,-1.5771,-1.5791,-1.5773,-1.584,-1.582,-1.5842,-1.5837,-1.5895,-1.5891,-1.6086,-1.611,-1.5918,-1.592,-1.5922,0,-1.5843,-1.5879,-1.5861,-1.5875,-1.5871,-1.5894,-1.5904,-1.5862,-1.5875,-1.5872,-1.59,-1.5918,-1.5931,-1.5971,-1.595,-1.5965,-1.5947,-1.6014,-1.5949,-1.5961,-1.595,-1.5949,-1.5953,-1.6028,-1.603,-1.6032,-1.6034,0,-1.6006,-1.5989,-1.6005,-1.6015,-1.6029,-1.6035,-1.6038,-1.6052,-1.6008,-1.6025,-1.6047,-1.6057,-1.6077,-1.6097,-1.6106,-1.61,-1.6061,-1.6054,-1.6068,-1.6083,-1.6095,-1.6091,-1.5881,-1.605,-1.6049,-1.6047,-1.6046,-1.6046,-1.6131,-1.616,-1.6152,-1.6171,-1.6168,-1.6172,-1.6197,-1.6179,-1.6197,-1.6209,-1.6183,-1.6213,-1.6207,-1.6215,-1.6213,-1.6236,-1.6207,-1.6227,-1.6233,-1.6239,-1.6249,-1.6089,-1.6237,-1.6237,-1.6236,-1.6236,-1.6236,0,-1.6293,-1.6284,-1.6303,-1.6308,-1.6324,-1.6283,-1.6283,-1.63,-1.6326,-1.6324,-1.6337,-1.6364,-1.6382,-1.6362,-1.6377,-1.6399,-1.6382,-1.6405,-1.6404,-1.6404,-1.6273,-1.626,-1.6419,-1.6419,-1.6419,-1.6419,-1.6419,-1.6419,-1.6379,-1.6427,-1.6408,-1.6454,-1.6445,-1.6473,-1.6477,-1.6481,-1.6479,-1.651,-1.6525,-1.6511,-1.6502,-1.6516,-1.6531,-1.6525,-1.6534,-1.6564,-1.6552,-1.6431,-1.6413,-1.6396,-1.6384,-1.6566,-1.6566,-1.6681,-1.6682,-1.6683]},{"header":{"parameterUnit":"m.s-1","parameterCategory":1,"la1":30.2991,"la2":30.254,"lo1":-89.0895,"lo2":-89.0444,"dy":0.0017,"dx":0.0017,"nx":28,"ny":28,"refTime":"2025-01-02T03:00:00:Z","depth":0,"parameterNumber":3,"parameterNumberName":"V-component_of_WINDS"},"data":[0,0,0,0,0,0,0,0,0,0,0,0,0,0,0,0,0,0,0,0,0,0,0,0,0,0,0,0,0,0,0,0,0,0,0,0,0,0,0,0,0,0,0,0,0,0,0,0,0,0,0,0,0,0,0,0,0,0,-3.1951,-3.1951,0,-3.1925,-3.1925,-3.1925,-3.1841,-3.1839,-3.1838,-3.1836,-3.1811,-3.1812,-3.1813,0,0,0,0,0,0,0,0,0,0,0,0,0,-3.193,-3.1931,-3.1951,-3.1951,-3.195,-3.1925,-3.1925,-3.1925,-3.1842,-3.1839,-3.1837,-3.1835,-3.1811,-3.1812,-3.1813,0,0,0,0,0,0,0,0,0,0,0,0,0,-3.1925,-3.1931,-3.1951,-3.1906,-3.1902,-3.1925,-3.1925,-3.1925,-3.1842,-3.1839,-3.1837,-3.1834,-3.181,-3.1812,-3.1813,-3.1879,0,0,-3.1818,-3.1819,0,0,0,0,0,0,0,0,-3.1926,-3.1926,-3.1913,-3.1909,-3.1904,-3.1884,-3.1908,-3.1909,-3.1843,-3.1865,-3.1836,-3.1833,-3.1838,-3.1837,-3.1838,-3.1878,-3.1877,-3.1818,-3.1819,-3.182,-3.1821,0,0,0,0,0,0,0,-3.1926,-3.1927,-3.1941,-3.1913,-3.1908,-3.1888,-3.1884,-3.1908,-3.1867,-3.1863,-3.1857,-3.1855,-3.1835,-3.1837,-3.1837,-3.1877,-3.1818,-3.182,-3.1821,-3.1821,-3.1971,-3.1974,0,0,0,0,0,0,-3.1933,-3.1928,-3.1942,-3.194,-3.1908,-3.189,-3.1886,-3.1893,-3.1867,-3.186,-3.1857,-3.1851,-3.1835,-3.1835,-3.1836,-3.1912,-3.182,-3.1822,-3.1823,-3.1968,-3.1972,-3.1975,0,0,0,0,0,0,-3.1933,-3.1935,-3.1943,-3.1932,-3.1932,-3.1893,-3.1902,-3.1894,-3.1896,-3.1862,-3.1855,-3.1867,-3.1833,-3.1833,-3.1869,-3.191,-3.1822,-3.1824,-3.1964,-3.1969,-3.1973,-3.2066,0,0,0,0,0,0,-3.1932,-3.1935,-3.1959,-3.1933,-3.1933,-3.1976,-3.1905,-3.1896,-3.1899,-3.1891,-3.1869,-3.1863,-3.1831,-3.1867,-3.1871,-3.1911,-3.1825,-3.1961,-3.1967,-3.1972,-3.2059,-3.2073,-3.2085,0,0,0,0,0,-3.1932,-3.1986,-3.1961,-3.1963,-3.1962,-3.1979,-3.1978,-3.194,-3.1902,-3.1927,-3.1905,-3.1864,-3.1905,-3.1872,-3.1875,-3.1916,-3.1958,-3.1965,-3.1971,-3.2053,-3.207,-3.2084,0,0,0,0,0,0,-3.2018,-3.1982,-3.1954,-3.2001,-3.1994,-3.1965,-3.1994,-3.1959,-3.1962,-3.1955,-3.1907,-3.1903,-3.1946,-3.1934,-3.1898,-3.1979,-3.1925,-3.1932,-3.1986,-3.2001,-3.2014,-3.2017,-3.1826,0,0,0,0,0,-3.2043,-3.2059,-3.2027,-3.2072,-3.207,-3.2033,-3.2039,-3.201,-3.2,-3.1997,-3.1978,-3.1971,-3.1982,-3.1991,-3.1999,-3.2056,-3.2051,-3.2086,-3.2099,-3.211,-3.2118,-3.2149,-3.2164,-3.1997,-3.1997,-3.1997,0,0,-3.2094,-3.2076,-3.2089,-3.2089,-3.208,-3.2099,-3.2031,-3.2053,-3.2067,-3.2,-3.2034,-3.202,-3.2009,-3.2056,-3.2076,-3.2047,-3.2163,-3.2119,-3.2128,-3.2129,-3.2157,-3.2173,-3.2187,-3.2002,-3.2001,-3.2,0,0,-3.2197,-3.2184,-3.2221,-3.2214,-3.2201,-3.2176,-3.2185,-3.2162,-3.215,-3.2182,-3.2133,-3.2149,-3.2169,-3.2164,-3.2164,-3.2266,-3.2229,-3.227,-3.2338,-3.2369,-3.2382,-3.2394,-3.2432,-3.2446,-3.2277,-3.2278,-3.2278,0,-3.2262,-3.2288,-3.2245,-3.2271,-3.2273,-3.2213,-3.2251,-3.2246,-3.2237,-3.224,-3.2208,-3.2233,-3.2221,-3.2267,-3.2292,-3.2294,-3.2304,-3.2273,-3.2384,-3.2395,-3.2405,-3.2441,-3.2455,-3.2283,-3.2282,-3.2282,-3.2281,0,-3.2369,-3.2388,-3.242,-3.2413,-3.2418,-3.245,-3.2413,-3.2423,-3.2394,-3.2373,-3.2408,-3.2391,-3.2396,-3.2405,-3.2376,-3.2447,-3.243,-3.2392,-3.2336,-3.2427,-3.246,-3.2473,-3.229,-3.2289,-3.2287,-3.2286,0,0,-3.2526,-3.2495,-3.2508,-3.2505,-3.2486,-3.25,-3.253,-3.2535,-3.2546,-3.2541,-3.2566,-3.2585,-3.255,-3.255,-3.252,-3.2547,-3.2631,-3.2505,-3.2504,-3.2531,-3.271,-3.2741,-3.2757,-3.2605,-3.2608,-3.261,-3.2712,0,-3.2625,-3.2674,-3.2637,-3.2692,-3.271,-3.2654,-3.268,-3.2672,-3.2654,-3.2667,-3.2646,-3.2661,-3.2612,-3.2612,-3.2636,-3.2616,-3.2667,-3.2608,-3.2629,-3.2631,-3.2636,-3.2774,-3.2806,-3.2903,-3.2724,-3.2726,-3.2728,0,-3.2747,-3.2749,-3.2807,-3.2786,-3.2792,-3.2816,-3.2818,-3.2831,-3.2821,-3.2806,-3.2807,-3.277,-3.2799,-3.2744,-3.2783,-3.2744,-3.275,-3.2742,-3.2745,-3.2747,-3.2686,-3.2781,-3.2933,-3.2948,-3.2747,-3.2746,-3.2744,0,-3.2858,-3.2875,-3.2912,-3.291,-3.2887,-3.2905,-3.2896,-3.2884,-3.289,-3.2891,-3.2895,-3.29,-3.2903,-3.2909,-3.2875,-3.2837,-3.292,-3.2861,-3.2909,-3.291,-3.293,-3.293,-3.3087,-3.2932,-3.2932,-3.2932,-3.2931,0,-3.2973,-3.3012,-3.2962,-3.2985,-3.3026,-3.2983,-3.3025,-3.301,-3.3,-3.302,-3.2971,-3.2991,-3.2944,-3.296,-3.2934,-3.2972,-3.2973,-3.2962,-3.2955,-3.2968,-3.2969,-3.2973,-3.2966,-3.2935,-3.2935,-3.2934,-3.2933,0,-3.3105,-3.3073,-3.311,-3.3084,-3.3079,-3.3111,-3.3089,-3.311,-3.3088,-3.3114,-3.3118,-3.3084,-3.31,-3.3066,-3.3077,-3.306,-3.3114,-3.3095,-3.3118,-3.3113,-3.3163,-3.316,-3.3329,-3.335,-3.3181,-3.3182,-3.3184,0,-3.3182,-3.321,-3.3188,-3.3197,-3.3191,-3.3207,-3.3213,-3.3172,-3.318,-3.3172,-3.3194,-3.3205,-3.3213,-3.324,-3.3217,-3.3226,-3.3208,-3.3267,-3.3209,-3.3221,-3.3211,-3.3211,-3.3214,-3.3279,-3.3281,-3.3283,-3.3284,0,-3.3322,-3.3305,-3.3314,-3.332,-3.3328,-3.333,-3.3328,-3.3339,-3.3295,-3.3307,-3.3322,-3.3328,-3.3339,-3.3352,-3.3355,-3.3346,-3.331,-3.3303,-3.3315,-3.3329,-3.3341,-3.3337,-3.3152,-3.3299,-3.3298,-3.3297,-3.3296,-3.3295,-3.3429,-3.3452,-3.3441,-3.3454,-3.3448,-3.3448,-3.3467,-3.3448,-3.346,-3.3466,-3.3441,-3.3462,-3.3453,-3.3453,-3.3449,-3.3466,-3.3439,-3.3456,-3.3461,-3.3466,-3.3475,-3.3337,-3.3466,-3.3465,-3.3465,-3.3465,-3.3464,0,-3.3568,-3.3558,-3.3571,-3.357,-3.3581,-3.3544,-3.3541,-3.3552,-3.3572,-3.3566,-3.3574,-3.3593,-3.3605,-3.3583,-3.3592,-3.361,-3.3593,-3.3614,-3.3613,-3.3612,-3.3497,-3.3487,-3.3628,-3.3628,-3.3628,-3.3628,-3.3628,-3.3628,-3.3642,-3.368,-3.3661,-3.3696,-3.3686,-3.3706,-3.3708,-3.3708,-3.3704,-3.3727,-3.3737,-3.3722,-3.371,-3.3718,-3.3728,-3.3721,-3.3728,-3.3755,-3.3743,-3.3636,-3.362,-3.3605,-3.3595,-3.3756,-3.3756,-3.3856,-3.3857,-3.3858]}]]